CS7ATL-11 Weather Reports


time (UTC)temp
C
wind
direction
speed
KPH
gust
KPH
rain 1hr
cm
rain 24hr
cm
rain mn
cm
humidity
%
barometer
mb
20260503211003 14 320 3.2 6.4 0.00 0.00 0.00 100 1004.4
20260503210503 14 324 1.6 8.0 0.00 0.00 0.00 100 1004.4
20260503210003 14 328 1.6 8.0 0.00 0.00 0.00 100 1004.3
20260503205502 14 302 0.0 8.0 0.00 0.00 0.00 100 1004.3
20260503205002 14 321 0.0 4.8 0.00 0.00 0.00 100 1004.2
20260503204502 14 317 3.2 14.5 0.00 0.00 0.00 100 1004.1
20260503204003 14 307 1.6 14.5 0.00 0.00 0.00 100 1004.1
20260503203503 14 317 4.8 12.9 0.00 0.00 0.00 100 1004.0
20260503203003 14 322 6.4 8.0 0.00 0.00 0.00 100 1003.9
20260503202503 14 311 3.2 6.4 0.00 0.00 0.00 100 1003.7
20260503202002 15 313 1.6 9.7 0.00 0.00 0.00 100 1003.8
20260503201502 15 296 1.6 9.7 0.00 0.00 0.00 100 1003.7
20260503201002 15 282 6.4 9.7 0.00 0.00 0.00 100 1003.5
20260503200504 15 318 3.2 9.7 0.00 0.00 0.00 100 1003.5
20260503200003 15 327 4.8 9.7 0.00 0.00 0.00 100 1003.4
20260503195503 15 326 4.8 6.4 0.00 0.00 0.00 100 1003.4
20260503195003 15 326 0.0 9.7 0.00 0.00 0.00 100 1003.4
20260503194002 15 333 1.6 12.9 0.00 0.00 0.00 100 1003.4
20260503193503 15 315 1.6 14.5 0.00 0.00 0.00 100 1003.3
20260503193002 15 334 4.8 14.5 0.00 0.00 0.00 100 1003.4
20260503192003 15 332 3.2 14.5 0.00 0.00 0.00 100 1003.1
20260503191502 15 324 4.8 20.9 0.00 0.00 0.00 100 1003.1
20260503191003 16 317 3.2 20.9 0.00 0.00 0.00 100 1003.0
20260503190502 16 312 6.4 17.7 0.00 0.00 0.00 100 1003.0
20260503190003 16 327 1.6 14.5 0.00 0.00 0.00 100 1003.0
20260503185502 16 329 6.4 17.7 0.00 0.00 0.00 100 1003.0
20260503185003 16 319 6.4 17.7 0.00 0.00 0.00 100 1002.9
20260503184503 16 322 0.0 17.7 0.00 0.00 0.00 100 1002.8
20260503184002 16 327 1.6 17.7 0.00 0.00 0.00 100 1002.8
20260503183502 16 294 11.3 14.5 0.00 0.00 0.00 100 1002.8
20260503183002 16 298 4.8 12.9 0.00 0.00 0.00 100 1002.7
20260503182502 16 344 6.4 14.5 0.00 0.00 0.00 100 1002.7
20260503181002 17 309 1.6 14.5 0.00 0.00 0.00 100 1002.7
20260503180502 17 319 9.7 14.5 0.00 0.00 0.00 100 1002.7
20260503180003 17 312 4.8 14.5 0.00 0.00 0.00 100 1002.8
20260503175502 17 333 6.4 14.5 0.00 0.00 0.00 100 1002.7
20260503175002 17 324 8.0 14.5 0.00 0.00 0.00 100 1002.8
20260503174003 17 326 9.7 17.7 0.00 0.00 0.00 100 1002.7
20260503173505 17 292 8.0 19.3 0.00 0.00 0.00 100 1002.7
20260503173002 17 323 4.8 19.3 0.00 0.00 0.00 100 1002.7
20260503172502 18 290 11.3 17.7 0.00 0.00 0.00 100 1002.8
20260503171502 18 313 8.0 16.1 0.00 0.00 0.00 100 1002.8
20260503171003 18 348 8.0 16.1 0.00 0.00 0.00 100 1002.9
20260503170502 18 329 3.2 16.1 0.00 0.00 0.00 100 1002.9
20260503131002 17 229 0.0 20.9 0.00 0.00 0.00 100 1003.4
20260503130502 18 169 6.4 20.9 0.00 0.00 0.00 100 1003.5
20260503110459 17 235 4.8 11.3 0.00 0.00 0.00 100 1003.9
20260503081500 17 262 1.6 3.2 0.00 0.08 0.00 100 1003.6
20260503081000 17 271 1.6 4.8 0.00 0.08 0.00 100 1003.4
20260503080500 16 261 0.0 4.8 0.00 0.08 0.00 100 1003.5
20260503072502 14 329 0.0 1.6 0.00 0.08 0.00 100 1003.3
20260503072002 14 277 0.0 1.6 0.00 0.08 0.00 100 1003.4
20260503071503 13 277 0.0 1.6 0.00 0.08 0.00 100 1003.5
20260503071003 13 200 0.0 1.6 0.00 0.08 0.00 100 1003.4
20260503070502 13 355 0.0 0.0 0.00 0.08 0.00 100 1003.3
20260503054959 12 253 0.0 0.0 0.00 0.10 0.00 100 1003.3
20260503053959 12 253 0.0 0.0 0.00 0.10 0.00 100 1003.2
20260503053459 12 253 0.0 0.0 0.00 0.10 0.00 100 1003.1
20260503052959 12 253 0.0 0.0 0.00 0.10 0.00 100 1003.2
20260503052459 12 253 0.0 0.0 0.00 0.10 0.00 100 1003.2
20260503051959 12 253 0.0 0.0 0.00 0.10 0.00 100 1003.0
20260503051500 12 253 0.0 0.0 0.00 0.10 0.00 100 1003.0
20260503050959 12 253 0.0 0.0 0.00 0.10 0.00 100 1003.1
20260503050459 12 253 0.0 0.0 0.00 0.10 0.00 100 1003.1
20260503050003 12 253 0.0 0.0 0.00 0.10 0.00 100 1003.1
20260503045459 12 253 0.0 0.0 0.00 0.10 0.00 100 1003.1
20260503044959 12 253 0.0 0.0 0.00 0.10 0.00 100 1003.0
20260503044500 12 253 0.0 0.0 0.00 0.10 0.00 100 1003.0
20260503044000 12 253 0.0 0.0 0.00 0.10 0.00 100 1003.1
20260503043500 12 253 0.0 0.0 0.00 0.10 0.00 100 1003.0
20260503042959 12 253 0.0 0.0 0.00 0.10 0.00 100 1003.1
20260503042459 12 253 0.0 0.0 0.00 0.10 0.00 100 1003.0
20260503041959 12 253 0.0 0.0 0.00 0.10 0.00 100 1003.0
20260503040959 12 253 0.0 0.0 0.00 0.10 0.00 100 1003.1
20260503040459 12 253 0.0 0.0 0.00 0.10 0.00 100 1003.1
20260503040002 12 253 0.0 0.0 0.00 0.10 0.00 100 1003.0
20260503035501 12 253 0.0 0.0 0.00 0.10 0.00 100 1003.1
20260503035002 12 253 0.0 0.0 0.00 0.10 0.00 100 1003.1
20260503034502 12 253 0.0 0.0 0.00 0.10 0.00 100 1003.1
20260503034002 12 253 0.0 0.0 0.00 0.10 0.00 100 1003.2
20260503033503 12 253 0.0 0.0 0.00 0.10 0.00 100 1003.2
20260503033002 12 253 0.0 0.0 0.00 0.10 0.00 100 1003.1
20260503032500 13 253 0.0 0.0 0.00 0.10 0.00 100 1003.3
20260503032002 13 253 0.0 0.0 0.00 0.10 0.00 100 1003.3
20260503031502 13 253 0.0 0.0 0.00 0.10 0.00 100 1003.3
20260503030500 13 253 0.0 0.0 0.00 0.10 0.00 100 1003.3
20260503030003 13 253 0.0 0.0 0.00 0.10 0.00 100 1003.3
20260503025459 13 253 0.0 0.0 0.00 0.10 0.00 100 1003.4
20260503025000 13 253 0.0 0.0 0.00 0.10 0.00 100 1003.4
20260503024459 13 253 0.0 0.0 0.00 0.10 0.00 100 1003.3
20260503023959 13 253 0.0 0.0 0.00 0.10 0.00 100 1003.2
20260503023459 13 253 0.0 0.0 0.00 0.10 0.00 100 1003.3
20260503022959 13 253 0.0 0.0 0.00 0.10 0.00 100 1003.3
20260503022459 13 253 0.0 0.0 0.00 0.10 0.00 100 1003.4
20260503021959 13 252 0.0 0.0 0.00 0.10 0.00 100 1003.5
20260503021459 13 252 0.0 0.0 0.00 0.10 0.00 100 1003.5
20260503020959 13 252 0.0 0.0 0.00 0.10 0.00 100 1003.6
20260503020459 13 252 0.0 0.0 0.00 0.10 0.00 100 1003.6
20260503015959 13 252 0.0 0.0 0.00 0.10 0.00 100 1003.6
20260503015459 13 252 0.0 0.0 0.00 0.10 0.00 100 1003.5
20260503014500 13 252 0.0 1.6 0.00 0.10 0.00 100 1003.7
20260503013500 13 252 0.0 1.6 0.00 0.10 0.00 100 1003.7
20260503012959 13 252 0.0 1.6 0.00 0.10 0.00 100 1003.8
20260503012459 13 252 0.0 1.6 0.00 0.10 0.00 100 1004.0
20260503011459 13 251 0.0 0.0 0.00 0.10 0.00 100 1004.0
20260503010959 13 251 0.0 0.0 0.00 0.10 0.00 100 1004.1
20260503010459 13 251 0.0 0.0 0.00 0.10 0.00 100 1004.0
20260503005459 13 251 0.0 0.0 0.00 0.10 0.00 100 1004.1
20260503004959 13 251 0.0 1.6 0.00 0.10 0.00 100 1004.2
20260503004500 13 251 0.0 3.2 0.00 0.10 0.00 100 1004.1
20260503003459 13 251 0.0 0.0 0.00 0.10 0.00 100 1004.3
20260503002958 13 251 0.0 0.0 0.00 0.10 0.00 100 1004.5
20260503002459 13 251 0.0 0.0 0.00 0.10 0.00 100 1004.3
20260503002000 13 251 0.0 0.0 0.00 0.10 0.00 100 1004.3
20260503001459 13 251 0.0 1.6 0.00 0.10 0.00 100 1004.3
20260503000959 13 251 0.0 1.6 0.00 0.10 0.00 100 1004.5
20260503000459 13 251 0.0 1.6 0.00 0.10 0.00 100 1004.5
20260503000003 13 251 0.0 0.0 0.00 0.10 0.00 100 1004.5
20260502235000 14 251 0.0 0.0 0.00 0.10 0.00 100 1004.5
20260502234000 14 251 0.0 1.6 0.00 0.10 0.00 100 1004.6
20260502233500 14 251 0.0 1.6 0.00 0.10 0.00 100 1004.7
20260502233000 14 251 0.0 1.6 0.00 0.10 0.00 100 1004.6
20260502232500 14 251 0.0 3.2 0.00 0.10 0.00 100 1004.8
20260502232000 14 250 0.0 3.2 0.00 0.10 0.00 100 1004.7
20260502231000 14 248 0.0 3.2 0.00 0.10 0.00 100 1004.7
20260502230500 14 247 0.0 1.6 0.00 0.10 0.00 100 1004.8
20260502230007 14 248 0.0 1.6 0.00 0.10 0.00 100 1004.7
20260502225503 15 248 0.0 1.6 0.00 0.10 0.10 100 1004.7
20260502225002 15 248 0.0 1.6 0.00 0.10 0.10 100 1004.7
20260502224503 15 248 0.0 1.6 0.00 0.10 0.10 100 1004.7
20260502224002 15 249 0.0 0.0 0.00 0.10 0.10 100 1004.7
20260502223003 15 249 0.0 0.0 0.00 0.10 0.10 100 1004.8
20260502222502 15 249 0.0 0.0 0.00 0.10 0.10 100 1004.6
20260502222002 15 249 0.0 0.0 0.00 0.10 0.10 100 1004.9
20260502221503 15 249 0.0 0.0 0.00 0.10 0.10 100 1004.7
20260502221002 15 249 0.0 0.0 0.00 0.10 0.10 100 1004.8
20260502220503 15 249 0.0 0.0 0.00 0.10 0.10 100 1004.8
20260502220003 15 249 0.0 0.0 0.00 0.10 0.10 100 1004.9
20260502215502 15 249 0.0 0.0 0.00 0.10 0.10 100 1004.9
20260502215003 15 249 0.0 0.0 0.00 0.10 0.10 100 1004.8
20260502214502 15 249 0.0 1.6 0.00 0.10 0.10 100 1004.9
20260502213502 15 249 0.0 1.6 0.00 0.10 0.10 100 1004.8
20260502212002 16 249 0.0 1.6 0.00 0.10 0.10 100 1004.8